Twentynine Palms, CA

8:01 PM PDT on October 22, 2019 (GMT -0700)
Twentynine Palms Expeditionary Air Field

Weather History for KNXP - September, 2019

Change the Weather History Date:

Tuesday, September 17, 2019

  Actual Average Record
Temperature  
Mean Temperature 82 °F -  
Max Temperature 90 °F 92 °F 102 °F (2000)
Min Temperature 70 °F 66 °F 63 °F (2007)
Cooling Degree Days 17    
Growing Degree Days 32 (Base 50)    
Moisture  
Dew Point 32 °F    
Average Humidity 17    
Maximum Humidity 29    
Minimum Humidity 10    
Precipitation  
Precipitation 0.00 in - - ()
Sea Level Pressure  
Sea Level Pressure 29.89 in    
Wind  
Wind Speed 9 mph (NW)    
Max Wind Speed 13 mph    
Max Gust Speed -    
Visibility 10 miles    
Events      
Averages and records for this station are not official NWS values.
T = Trace of Precipitation, MM = Missing Value Source: NWS Daily Summary

Daily Weather History Graph

Daily Weather History Graph

Search for Another Location

Airport or City:

Astronomy

Sep. 17, 2019 Rise Set
Actual Time 6:29 AM PDT 6:48 PM PDT
Civil Twilight 6:04 AM PDT 7:13 PM PDT
Nautical Twilight 5:34 AM PDT 7:43 PM PDT
Astronomical Twilight 5:04 AM PDT 8:12 PM PDT
Moon 9:02 PM PDT (9/17) 9:30 AM PDT (9/17)
Length of Visible Light 13h 09m
Length of Day
12h 19m
Waning Gibbous, 88% of the Moon is Illuminated
Sep 17
Waning Gibbous
Sep 21
Last Quarter
Sep 28
New
Oct 5
First Quarter
Oct 13
Full

Hourly Weather History & Observations

Time (PDT) Temp. Dew Point Humidity Pressure Visibility Wind Dir Wind Speed Gust Speed Precip Events Conditions
12:56 AM 91.9 °F 28.0 °F 10% 29.82 in 10.0 mi West 11.5 mph - N/A   Clear
1:56 AM 82.0 °F 28.9 °F 14% 29.83 in 10.0 mi NNW 3.5 mph - N/A   Clear
2:56 AM 90.0 °F 33.1 °F 13% 29.83 in 10.0 mi West 10.4 mph - N/A   Clear
3:56 AM 84.0 °F 34.0 °F 17% 29.85 in 10.0 mi WNW 12.7 mph - N/A   Clear
4:56 AM 84.9 °F 32.0 °F 15% 29.87 in 10.0 mi WNW 11.5 mph - N/A   Clear
5:56 AM 82.0 °F 39.0 °F 22% 29.89 in 10.0 mi WNW 12.7 mph - N/A   Clear
6:56 AM 77.0 °F 42.1 °F 29% 29.92 in 10.0 mi WNW 9.2 mph - N/A   Clear
7:56 AM - - N/A% 30.05 in 10.0 mi WNW 10.4 mph - N/A   Clear
8:56 AM - - N/A% 30.06 in 10.0 mi NW 10.4 mph - N/A   Clear
9:56 AM 75.9 °F 39.0 °F 26% 29.95 in 10.0 mi Variable 6.9 mph - N/A   Clear
10:56 AM 79.0 °F 37.0 °F 22% 29.94 in 10.0 mi North 6.9 mph - N/A   Clear
11:56 AM 82.0 °F 35.1 °F 18% 29.93 in 10.0 mi NW 6.9 mph - N/A   Clear
12:56 PM 84.0 °F 32.0 °F 15% 29.91 in 10.0 mi North 8.1 mph - N/A   Clear
1:56 PM 86.0 °F 32.0 °F 14% 29.89 in 10.0 mi West 8.1 mph - N/A   Clear
2:56 PM 87.1 °F 28.9 °F 12% 29.86 in 10.0 mi NNW 4.6 mph - N/A   Clear
3:56 PM 89.1 °F 27.0 °F 11% 29.84 in 10.0 mi NNW 6.9 mph - N/A   Clear
4:56 PM 88.0 °F 26.1 °F 11% 29.83 in 10.0 mi NNW 6.9 mph - N/A   Clear
5:56 PM 88.0 °F 25.0 °F 10% 29.83 in 10.0 mi Variable 3.5 mph - N/A   Clear
6:56 PM 84.0 °F 24.1 °F 11% 29.83 in 10.0 mi Calm Calm - N/A   Clear
7:56 PM 80.1 °F 33.1 °F 18% 29.94 in 10.0 mi North 4.6 mph - N/A   Clear
8:56 PM 78.1 °F 33.1 °F 19% 29.96 in 10.0 mi WNW 8.1 mph - N/A   Clear
9:56 PM 75.0 °F 32.0 °F 21% 29.87 in 10.0 mi West 10.4 mph - N/A   Clear
10:56 PM 73.0 °F 30.0 °F 20% 29.87 in 10.0 mi NNW 4.6 mph - N/A   Clear
11:56 PM 70.0 °F 30.0 °F 23% 29.87 in 10.0 mi NNW 6.9 mph - N/A   Clear